Location: Cactus School
(34.5700°N, 118.0931°W)
Time: 22:55:10
(UTC-08:00)

Vanguard 1 Rocket - All Passes

Search period start: 22 February 2018 00:00
Search period end: 04 March 2018 00:00
Orbit: 655 x 4222 km, 34.3° (Epoch: 22 February)

Date Brightness Start Highest point End Pass type
(mag) Time Alt. Az. Time Alt. Az. Time Alt. Az.
22 Feb - 02:23:52 10° W 02:50:22 81° SSW 03:10:33 10° ESE visible
22 Feb - 04:58:07 10° WNW 05:20:51 46° SW 05:35:19 10° SSE visible
22 Feb - 17:58:48 10° SE 18:03:51 12° ESE 18:09:52 10° E visible
22 Feb - 20:14:51 10° SSW 20:29:07 50° SE 20:52:14 10° ENE visible
22 Feb - 22:39:56 10° WSW 22:59:52 83° SSE 23:26:30 10° E visible
23 Feb - 01:09:25 10° W 01:34:40 88° S 01:57:52 10° ESE visible
23 Feb - 03:42:01 10° WNW 04:07:34 62° SSW 04:24:58 10° SE visible
23 Feb - 06:19:27 10° W 06:34:53 23° SW 06:45:49 10° S daylight
23 Feb - 19:05:33 10° S 19:16:59 33° SE 19:35:09 10° ENE visible
23 Feb - 21:28:13 10° SW 21:45:01 72° SSE 22:11:10 10° ENE visible
23 Feb - 23:55:48 10° W 00:18:33 90° S 00:44:10 10° E visible
24 Feb - 02:26:51 10° WNW 02:53:02 75° SSW 03:13:30 10° ESE visible
24 Feb - 05:01:18 10° WNW 05:22:55 39° SW 05:37:29 10° SSE visible
24 Feb - 17:58:18 10° SSE 18:05:50 18° ESE 18:16:09 10° E visible
24 Feb - 20:17:27 10° SW 20:31:26 57° SE 20:55:10 10° ENE visible
24 Feb - 22:43:05 10° WSW 23:02:43 87° S 23:29:31 10° E visible
25 Feb - 01:12:31 10° W 01:37:31 84° SSW 02:00:56 10° ESE visible
25 Feb - 03:44:59 10° WNW 04:09:51 55° SW 04:27:30 10° SE visible
25 Feb - 06:24:21 10° W 06:36:47 18° WSW 06:46:24 10° SSW daylight
25 Feb - 19:07:43 10° SSW 19:19:07 40° SE 19:38:27 10° ENE visible
25 Feb - 21:31:14 10° WSW 21:47:44 79° SSE 22:14:04 10° E visible
25 Feb - 23:59:00 10° W 00:21:30 89° S 00:47:15 10° E visible
26 Feb - 02:29:50 10° WNW 02:55:33 69° SSW 03:16:16 10° SE visible
26 Feb - 05:04:49 10° WNW 05:24:53 32° SW 05:39:16 10° S visible
26 Feb - 17:59:25 10° S 18:07:53 23° SE 18:20:41 10° E visible
26 Feb - 20:20:16 10° SW 20:33:56 65° SSE 20:58:01 10° ENE visible
26 Feb - 22:46:17 10° W 23:05:40 89° S 23:32:32 10° E visible
27 Feb - 01:15:37 10° W 01:40:16 80° SSW 02:03:52 10° ESE visible
27 Feb - 03:48:05 10° WNW 04:11:58 47° SW 04:29:46 10° SSE visible
27 Feb - 06:31:22 10° W 06:38:41 12° WSW 06:45:02 10° SW daylight
27 Feb - 19:10:11 10° SSW 19:21:25 48° SE 19:41:31 10° ENE visible
27 Feb - 21:34:23 10° WSW 21:50:35 83° SSE 22:16:58 10° E visible
28 Feb - 00:02:12 10° W 00:24:25 87° S 00:50:17 10° ESE visible
28 Feb - 02:32:51 10° WNW 02:57:55 62° SSW 03:18:51 10° SE visible
28 Feb - 05:08:50 10° W 05:26:45 26° SW 05:40:31 10° S visible
28 Feb - 18:01:15 10° S 18:10:02 29° SE 18:24:28 10° E visible
28 Feb - 20:23:15 10° WSW 20:36:37 72° SSE 21:00:50 10° ENE visible
28 Feb - 22:49:33 10° W 23:08:39 90° S 23:35:33 10° E visible
01 Mar - 01:18:42 10° WNW 01:42:53 75° SSW 02:06:39 10° ESE visible
01 Mar - 03:51:22 10° WNW 04:13:59 40° SW 04:31:43 10° SSE visible
01 Mar - 16:54:44 10° SSE 16:59:29 14° ESE 17:05:32 10° E daylight
01 Mar - 19:12:55 10° SW 19:23:52 56° SE 19:44:26 10° ENE visible
01 Mar - 21:37:37 10° WSW 21:53:33 87° S 22:19:54 10° E visible
02 Mar - 00:05:24 10° W 00:27:16 84° SSW 00:53:13 10° ESE visible
02 Mar - 02:35:57 10° WNW 03:00:11 55° SW 03:21:10 10° SE visible
02 Mar - 05:13:43 10° W 05:28:39 20° SW 05:40:56 10° SSW visible
02 Mar - 18:03:31 10° SSW 18:12:19 36° SE 18:27:50 10° ENE visible
02 Mar - 20:26:23 10° WSW 20:39:27 79° SSE 21:03:40 10° E visible
02 Mar - 22:52:50 10° W 23:11:39 89° S 23:38:32 10° E visible
03 Mar - 01:21:48 10° WNW 01:45:24 68° SSW 02:09:14 10° SE visible
03 Mar - 03:55:00 10° W 04:15:56 33° SW 04:33:14 10° S visible
03 Mar - 16:55:36 10° SSE 17:01:41 19° SE 17:10:30 10° E daylight
03 Mar - 19:15:51 10° SW 19:26:33 64° SSE 19:47:16 10° ENE visible
03 Mar - 21:40:55 10° W 21:56:35 89° S 22:22:51 10° E visible
